This is the latest recevied weather packets stored in our database for station/object VK4CWL-13. If no packets are shown the sender has not sent any weather packets the latest 10 day(s).
| Time | Temp. | Humidity | Pressure | Rain* | Wind** | Luminosity | Snow |
|---|---|---|---|---|---|---|---|
| 1788206955 | 9.44° C | 84% | 1027 hPa | 0 mm | - | - | - |
| 1788206664 | 10° C | 85% | 1027 hPa | 0 mm | - | - | - |
| 1788206351 | 10° C | 84% | 1027 hPa | 0 mm | - | - | - |
| 1788206049 | 10° C | 84% | 1026.8 hPa | 0 mm | - | - | - |
| 1788205747 | 10.56° C | 84% | 1026.9 hPa | 0 mm | - | - | - |
| 1788205444 | 10.56° C | 83% | 1026.8 hPa | 0 mm | - | - | - |
| 1788205142 | 10.56° C | 83% | 1026.8 hPa | 0 mm | - | - | - |
| 1788204840 | 11.11° C | 83% | 1026.7 hPa | 0 mm | - | - | - |
| 1788204235 | 11.67° C | 82% | 1026.5 hPa | 0 mm | - | - | - |
| 1788203932 | 11.67° C | 83% | 1026.5 hPa | 0 mm | - | - | - |
| 1788203630 | 11.67° C | 82% | 1026.5 hPa | 0 mm | - | - | - |
| 1788203328 | 12.22° C | 83% | 1026.5 hPa | 0 mm | - | - | - |
| 1788203026 | 12.78° C | 84% | 1026.6 hPa | 0 mm | - | - | - |
| 1788202724 | 12.78° C | 88% | 1026.5 hPa | 0 mm | - | - | - |
| 1788202421 | 12.78° C | 87% | 1026.6 hPa | 0 mm | - | - | - |
| 1788202119 | 12.78° C | 89% | 1026.6 hPa | 0 mm | - | - | - |
| 1788201817 | 12.78° C | 89% | 1026.6 hPa | 0 mm | - | - | - |
| 1788201514 | 12.22° C | 87% | 1026.5 hPa | 0 mm | - | - | - |
| 1788201212 | 12.78° C | 86% | 1026.5 hPa | 0 mm | - | - | - |
| 1788200909 | 12.78° C | 85% | 1026.4 hPa | 0 mm | - | - | - |
| 1788200607 | 12.78° C | 85% | 1026.4 hPa | 0 mm | - | - | - |
| 1788200307 | 12.78° C | 86% | 1026.6 hPa | 0 mm | - | - | - |
| 1788200003 | 12.78° C | 85% | 1026.4 hPa | 0 mm | - | - | - |
| 1788199701 | 12.78° C | 84% | 1026.4 hPa | 0 mm | - | - | - |
| 1788199399 | 12.78° C | 84% | 1026.4 hPa | 0 mm | - | - | - |
* Rain since midnight (hover to see other rain measurements)
** Current wind speed in m/s (hover to see current wind gust speed)